Tanger, Morocco

2:23 AM WEST on September 23, 2017 (GMT +0100)
Tanger

Weather History for GMTT - October, 2012

Change the Weather History Date:

Monday, October 1, 2012

  Actual Average Record
Temperature  
Mean Temperature 70 °F -  
Max Temperature 79 °F 73 °F 87 °F (2006)
Min Temperature 60 °F 58 °F 58 °F (2016)
Cooling Degree Days 4    
Growing Degree Days 20 (Base 50)    
Moisture  
Dew Point 61 °F    
Average Humidity 75    
Maximum Humidity 94    
Minimum Humidity 43    
Precipitation  
Precipitation 0.00 in 0.09 in - ()
Sea Level Pressure  
Sea Level Pressure 30.12 in    
Wind  
Wind Speed 5 mph ()    
Max Wind Speed 15 mph    
Max Gust Speed -    
Visibility 5.0 miles    
Events      
Averages and records for this station are not official NWS values.
T = Trace of Precipitation, MM = Missing Value Source: Averaged Metar Reports

Daily Weather History Graph

Daily Weather History Graph

Search for Another Location

Airport or City:

Trip Planner

Search our weather history database for the weather conditions in past years. The results will help you decide how hot, cold, wet, or windy it might be!

Date:

Astronomy

Oct. 01, 2012 Rise Set
Actual Time 6:18 AM WET 6:06 PM WET
Civil Twilight 5:53 AM WET 6:32 PM WET
Nautical Twilight 5:23 AM WET 7:01 PM WET
Astronomical Twilight 4:53 AM WET 7:31 PM WET
Moon 6:41 PM WET (10/1) 7:30 AM WET (10/1)
Length of Visible Light 12h 39m
Length of Day
11h 48m
Full, 98% of the Moon is Illuminated
Oct 1
Full
Oct 8
Last Quarter
Oct 15
New
Oct 22
First Quarter
Oct 29
Full

Hourly Weather History & Observations

Time (WET) Temp. Dew Point Humidity Pressure Visibility Wind Dir Wind Speed Gust Speed Precip Events Conditions
12:00 AM 63 °F 61 °F 89% 30.13 in 4 mi NE 2.3 mph - -   Partly Cloudy
12:00 AM 62.6 °F 60.8 °F 94% 30.12 in 3.7 mi NE 2.3 mph - N/A   Scattered Clouds
12:30 AM 64.4 °F 60.8 °F 88% 30.12 in 3.7 mi East 4.6 mph - N/A   Scattered Clouds
1:00 AM 62.6 °F 60.8 °F 94% 30.12 in 3.7 mi ESE 3.5 mph - N/A   Scattered Clouds
1:30 AM 62.6 °F 60.8 °F 94% 30.09 in 3.7 mi Variable 2.3 mph - N/A   Scattered Clouds
2:00 AM 62.6 °F 59.0 °F 88% 30.09 in - SE 3.5 mph - N/A   Unknown
2:30 AM 62.6 °F 59.0 °F 88% 30.09 in - Variable 2.3 mph - N/A   Unknown
3:00 AM 61 °F 59 °F 90% 30.12 in 3 mi East 2.3 mph - -  
3:00 AM 60.8 °F 59.0 °F 94% 30.09 in - Variable 2.3 mph - N/A   Unknown
3:30 AM 60.8 °F 59.0 °F 94% 30.09 in - Variable 2.3 mph - N/A   Unknown
4:00 AM 62.6 °F 60.8 °F 94% 30.09 in 6.2 mi ESE 4.6 mph - N/A   Unknown
4:30 AM 62.6 °F 60.8 °F 94% 30.09 in - East 6.9 mph - N/A   Unknown
5:00 AM 60.8 °F 59.0 °F 94% 30.09 in 4.3 mi Calm Calm - N/A   Scattered Clouds
5:30 AM 60.8 °F 59.0 °F 94% 30.09 in 4.3 mi Calm Calm - N/A   Scattered Clouds
6:00 AM 63 °F 61 °F 91% 30.12 in 4 mi East 5.8 mph - -   Partly Cloudy
6:00 AM 62.6 °F 60.8 °F 94% 30.09 in 4.3 mi East 5.8 mph - N/A   Scattered Clouds
6:30 AM 62.6 °F 60.8 °F 94% 30.12 in 4.3 mi Variable 2.3 mph - N/A   Scattered Clouds
7:00 AM 62.6 °F 60.8 °F 94% 30.12 in 3.1 mi ENE 3.5 mph - N/A   Unknown
7:30 AM 64.4 °F 62.6 °F 94% 30.12 in 3.1 mi ESE 3.5 mph - N/A   Unknown
8:00 AM 66.2 °F 62.6 °F 88% 30.12 in 3.1 mi ENE 8.1 mph - N/A   Unknown
8:30 AM 68.0 °F 64.4 °F 88% 30.12 in 3.1 mi ENE 5.8 mph - N/A   Unknown
9:00 AM 69 °F 64 °F 79% 30.16 in 5 mi East 8.1 mph - -   Scattered Clouds
9:00 AM 68.0 °F 64.4 °F 88% 30.15 in 5.0 mi East 8.1 mph - N/A   Partly Cloudy
9:30 AM 71.6 °F 64.4 °F 78% 30.15 in 5.0 mi East 5.8 mph - N/A   Partly Cloudy
10:00 AM 73.4 °F 62.6 °F 69% 30.15 in 5.0 mi ENE 8.1 mph - N/A   Partly Cloudy
10:30 AM 75.2 °F 62.6 °F 65% 30.15 in 5.0 mi ENE 9.2 mph - N/A   Partly Cloudy
11:00 AM 77.0 °F 64.4 °F 65% 30.15 in 5.0 mi ENE 6.9 mph - N/A   Partly Cloudy
11:30 AM 77.0 °F 62.6 °F 61% 30.15 in 5.0 mi ENE 6.9 mph - N/A   Partly Cloudy
12:00 PM 78 °F 63 °F 51% 30.15 in 5 mi ENE 8.1 mph - -   Scattered Clouds
12:00 PM 78.8 °F 62.6 °F 57% 30.12 in 5.0 mi ENE 8.1 mph - N/A   Partly Cloudy
12:30 PM 78.8 °F 60.8 °F 54% 30.12 in 5.0 mi NE 6.9 mph - N/A   Partly Cloudy
1:00 PM 78.8 °F 59.0 °F 51% 30.12 in 5.0 mi ENE 9.2 mph - N/A   Partly Cloudy
1:30 PM 78.8 °F 60.8 °F 54% 30.12 in 5.0 mi ENE 10.4 mph - N/A   Partly Cloudy
2:00 PM 78.8 °F 59.0 °F 51% 30.12 in 5.0 mi ENE 9.2 mph - N/A   Partly Cloudy
2:30 PM 78.8 °F 60.8 °F 54% 30.12 in 6.2 mi NE 11.5 mph - N/A   Partly Cloudy
3:00 PM 78 °F 59 °F 43% 30.12 in 6 mi ENE 13.8 mph - -   Scattered Clouds
3:00 PM 78.8 °F 60.8 °F 54% 30.09 in 6.2 mi ENE 13.8 mph - N/A   Partly Cloudy
3:30 PM 77.0 °F 59.0 °F 54% 30.09 in 6.2 mi ENE 12.7 mph - N/A   Partly Cloudy
4:00 PM 77.0 °F 59.0 °F 54% 30.09 in 6.2 mi ENE 15.0 mph - N/A   Partly Cloudy
4:30 PM 77.0 °F 59.0 °F 54% 30.09 in 6.2 mi ENE 12.7 mph - N/A   Partly Cloudy
5:00 PM 78.8 °F 59.0 °F 51% 30.09 in 6.2 mi ENE 9.2 mph - N/A   Partly Cloudy
5:30 PM 75.2 °F 59.0 °F 57% 30.09 in 6.2 mi NE 8.1 mph - N/A   Partly Cloudy
6:00 PM 74 °F 59 °F 50% 30.12 in 6 mi NNE 6.9 mph - -   Scattered Clouds
6:00 PM 75.2 °F 59.0 °F 57% 30.09 in 6.2 mi NNE 6.9 mph - N/A   Partly Cloudy
6:30 PM 71.6 °F 59.0 °F 64% 30.12 in 6.2 mi NE 8.1 mph - N/A   Partly Cloudy
7:00 PM 69.8 °F 59.0 °F 68% 30.12 in 6.2 mi Variable 1.2 mph - N/A   Partly Cloudy
7:30 PM 68.0 °F 60.8 °F 78% 30.12 in 6.2 mi NNE 3.5 mph - N/A   Partly Cloudy
8:00 PM 68.0 °F 60.8 °F 78% 30.12 in 6.2 mi NE 3.5 mph - N/A   Partly Cloudy
8:30 PM 66.2 °F 59.0 °F 78% 30.15 in 6.2 mi NE 3.5 mph - N/A   Partly Cloudy
9:00 PM 67 °F 59 °F 70% 30.17 in 6 mi East 2.3 mph - -   Scattered Clouds
9:00 PM - - N/A% 0.00 in - North - - N/A   Partly Cloudy
9:30 PM 66.2 °F 60.8 °F 83% 30.15 in 5.0 mi NE 6.9 mph - N/A   Partly Cloudy
10:00 PM 66.2 °F 60.8 °F 83% 30.15 in 5.0 mi ESE 3.5 mph - N/A   Partly Cloudy
10:30 PM 66.2 °F 60.8 °F 83% 30.15 in 5.0 mi ENE 3.5 mph - N/A   Partly Cloudy
11:00 PM 66.2 °F 59.0 °F 78% 30.15 in 5.0 mi ENE 8.1 mph - N/A   Partly Cloudy
11:30 PM 66.2 °F 59.0 °F 78% 30.15 in 5.0 mi NE 5.8 mph - N/A   Partly Cloudy